Date,TemperatureHighF,TemperatureAvgF,TemperatureLowF,DewpointHighF,DewpointAvgF,DewpointLowF,HumidityHigh,HumidityAvg,HumidityLow,PressureMaxIn,PressureMinIn,WindSpeedMaxMPH,WindSpeedAvgMPH,GustSpeedMaxMPH,PrecipitationSumIn
2013-9-1,77.6,66.3,60.2,63.3,59.9,57.9,94,81,57,29.86,29.76,7,1,13,0.00
2013-9-2,79.6,72.8,65.9,61.3,59.6,57.1,80,64,50,29.89,29.82,12,2,14,0.00
2013-9-3,73.7,65.8,62.5,64.2,61.7,59.1,95,87,64,29.99,29.89,5,1,7,0.01
2013-9-4,69.3,64.8,61.3,62.8,60.8,58.9,94,87,77,30.01,29.96,10,1,13,0.01
2013-9-5,66.0,63.1,60.5,61.5,60.1,58.6,97,90,80,30.00,29.88,13,1,18,0.07
2013-9-6,70.6,64.0,60.8,63.7,61.6,60.2,99,92,78,30.08,29.89,12,2,13,0.01
2013-9-7,72.2,65.5,62.5,62.0,60.8,59.3,95,86,67,30.08,29.98,6,0,11,0.00
2013-9-8,75.9,65.9,59.0,67.2,60.6,57.5,97,84,61,30.08,29.99,8,1,11,0.00
2013-9-9,76.8,65.3,58.2,64.6,60.1,57.3,100,85,61,30.04,29.95,9,1,12,0.00
2013-9-10,77.0,66.2,57.4,64.4,60.7,56.5,98,84,64,29.97,29.85,11,2,14,0.00
2013-9-11,90.2,73.3,60.6,66.4,61.9,57.8,94,71,37,29.91,29.83,6,0,11,0.00
2013-9-12,79.2,67.7,60.4,64.3,61.3,58.7,97,81,55,29.97,29.87,7,1,10,0.00
2013-9-13,65.9,63.2,60.0,62.0,60.6,58.7,98,91,86,29.94,29.85,7,1,10,0.00
2013-9-14,67.9,63.9,61.2,62.5,60.7,59.0,94,89,81,29.85,29.71,10,1,10,0.00
2013-9-15,65.1,61.4,57.6,62.5,59.9,57.0,99,95,89,29.78,29.68,10,2,13,0.17
2013-9-16,67.8,62.3,59.5,61.1,58.3,54.3,94,87,75,29.90,29.78,18,6,22,0.01
2013-9-17,62.3,59.9,58.2,56.1,54.2,52.0,89,82,70,29.90,29.83,10,1,13,0.00
2013-9-18,66.9,60.3,56.3,55.7,54.1,51.8,93,81,61,30.04,29.91,11,1,12,0.00
2013-9-19,77.3,62.2,51.7,59.2,53.2,49.6,94,75,38,30.02,29.72,8,1,10,0.00
2013-9-20,72.9,62.9,57.4,58.9,55.1,51.4,95,77,53,29.72,29.55,14,3,25,0.07
2013-9-21,68.6,61.4,56.9,57.9,55.6,53.5,93,82,61,29.69,29.61,12,3,16,0.01
2013-9-22,61.2,58.7,56.2,56.2,54.3,50.5,93,86,70,29.68,29.54,27,9,31,0.03
2013-9-23,60.5,57.6,55.3,54.8,53.1,48.6,92,85,75,29.92,29.68,21,8,28,0.01
2013-9-24,56.6,53.6,52.2,52.8,51.0,49.5,94,91,80,29.91,29.81,9,2,14,0.01
2013-9-25,58.2,52.6,50.7,51.3,49.5,47.4,94,90,68,29.98,29.81,10,1,14,0.01
2013-9-26,61.8,53.6,47.2,52.2,49.5,46.3,98,87,65,30.08,29.98,10,1,12,0.00
2013-9-27,57.7,55.2,51.6,53.8,51.2,47.5,93,86,80,30.07,29.79,18,7,27,0.01
2013-9-28,61.3,57.2,53.1,59.0,55.1,50.5,97,93,87,29.80,29.30,26,8,29,0.18
2013-9-29,59.0,54.7,53.5,53.3,50.7,48.3,94,86,75,29.52,29.12,24,10,33,0.24
2013-9-30,57.0,53.2,50.1,51.9,48.8,44.6,94,85,71,29.87,29.37,26,11,37,0.01